Simultaneous Nadir Overpasses (SNOs) Predictions

Prediction of SNOs between GOES-17 and AQUA Satellite Orbit:

Table of predicted SNOs for the next 14.0 days since TLE Epoch: 10/26/2019
Index Date Time (GOES-17) GOES-17 Lat,Lon AQUA Lat,Lon Distance(km) Time Diff (sec)
1 10/26/2019 10:36:41 -0.00,-137.20 -0.30,-135.70 170.27 80
2 10/26/2019 22:58:04 0.00,-137.20 -0.81,-140.89 420.05 80
3 10/28/2019 22:45:52 -0.00,-137.19 -0.18,-137.93 84.69 80
4 10/30/2019 22:36:20 -0.00,-137.18 0.44,-134.97 250.16 80
5 10/31/2019 10:54:56 -0.00,-137.17 0.63,-140.13 336.91 80
6 11/02/2019 10:42:44 -0.01,-137.15 0.01,-137.18 3.06 80
7 11/04/2019 10:33:12 -0.02,-137.12 -0.62,-134.22 330.31 80
8 11/04/2019 22:51:56 0.02,-137.12 -0.45,-139.41 260.51 80
9 11/06/2019 22:42:24 0.03,-137.09 0.19,-136.46 72.78 80
10 11/08/2019 22:30:11 0.03,-137.06 0.77,-133.49 405.62 80




NCC Satellite Simultaneous Nadir Overpasses (SNOs) Prediction Service
